Wind_Speed
35 35 34 34 34 34 33 33 33 33 34 35 35 35 36 36 37 37 37 36 35 34 34 34 33 33 33 33 33 33 33 33 33 34 35 35 36 37 38 39 39 40 41
36 36 35 35 35 35 35 35 35 35 36 37 37 39 40 40 40 39 39 38 37 37 36 36 35 35 34 34 34 34 34 34 35 35 36 37 37 39 39 40 40 41 42
37 37 37 37 37 37 37 38 38 39 39 40 41 41 42 42 41 40 39 39 39 39 39 38 37 36 36 35 35 35 35 35 36 36 37 37 38 39 40 41 42 42 43
38 38 39 39 39 39 40 41 42 43 43 44 44 44 44 44 43 42 42 42 42 42 41 40 39 38 37 36 36 36 36 37 37 38 38 39 39 40 41 42 43 44 44
39 39 40 40 41 42 43 44 45 46 47 48 48 48 47 47 46 46 45 44 44 44 43 42 41 40 39 38 38 37 37 38 39 39 40 41 41 42 43 43 44 45 46
39 40 41 42 44 45 47 48 49 50 51 52 52 52 52 50 49 49 48 47 47 46 45 45 43 42 41 40 40 39 39 39 40 41 42 43 43 43 44 45 46 46 47
40 42 43 45 46 48 49 51 52 53 54 54 54 54 54 53 52 51 51 50 48 47 47 46 45 44 43 42 41 40 40 41 41 42 43 43 44 45 47 48 48 48 48
41 43 45 47 48 50 52 53 53 54 54 54 54 55 54 54 53 52 51 50 49 48 48 47 46 45 44 43 42 41 41 42 43 44 44 45 46 48 49 50 51 51 51
41 43 45 47 49 50 52 53 54 54 55 55 54 54 54 53 53 52 52 51 50 49 49 48 47 46 45 44 43 42 43 43 45 45 46 47 48 50 52 53 54 55 55
40 42 44 45 47 49 51 52 53 54 54 54 54 54 53 53 52 52 52 51 50 50 49 48 47 46 45 44 43 43 43 44 45 46 47 49 50 52 54 55 57 58 59
36 38 41 43 46 48 50 52 53 53 53 53 52 52 52 51 50 49 50 50 50 50 49 47 46 45 44 44 43 43 44 45 46 47 49 51 53 55 57 58 59 61 62
35 37 39 42 44 46 48 50 51 52 52 52 51 50 50 49 48 46 46 48 48 48 47 46 45 44 43 42 42 43 43 45 47 48 50 53 55 57 59 60 61 63 65
34 36 38 41 43 44 45 46 46 46 47 48 49 49 48 48 46 45 44 44 45 45 44 43 42 42 41 40 41 42 44 45 47 50 52 54 57 59 60 61 63 65 67
32 34 36 39 40 40 40 39 38 38 38 41 43 45 45 45 44 43 41 41 42 42 41 40 39 39 39 39 41 42 43 47 50 52 54 57 58 60 61 63 65 66 68
29 30 33 34 35 34 33 31 29 28 28 31 35 38 39 40 40 38 37 37 37 37 36 36 35 36 37 38 40 42 45 48 52 54 56 58 59 61 63 65 66 68 69
24 26 28 29 28 27 25 22 18 18 20 24 28 31 33 34 34 33 32 32 32 32 31 31 32 34 36 37 40 44 47 51 53 55 57 59 61 63 65 66 68 70 72
21 23 23 23 22 20 16 12 11 12 16 20 23 25 27 28 29 29 27 27 27 27 28 30 31 33 36 39 43 46 49 51 53 56 58 60 62 64 65 67 69 71 74
17 18 19 18 16 12 8 5 5 8 12 17 20 22 23 24 25 25 23 23 24 26 27 29 31 34 38 41 44 47 50 52 54 57 59 60 62 64 66 68 70 73 76
13 14 15 13 11 7 2 3 5 9 13 16 18 20 21 22 22 21 22 22 23 24 27 29 33 36 39 41 45 48 50 52 55 57 59 61 63 66 68 70 72 74 78
10 10 10 9 8 5 4 6 8 11 14 16 18 18 18 19 19 20 20 20 21 24 27 30 33 36 39 42 46 48 50 52 54 57 60 63 65 67 70 72 74 76 78
9 8 6 5 5 5 6 8 9 11 13 13 14 14 15 15 16 17 18 20 21 24 27 30 33 36 39 42 45 48 50 52 55 58 60 63 66 68 70 73 75 76 76
6 5 4 3 3 4 5 6 8 9 10 10 10 10 11 12 14 16 18 20 22 25 28 31 34 37 40 43 46 48 51 54 56 59 62 64 66 69 72 74 75 74 72
4 3 3 2 2 3 4 4 5 6 7 7 8 9 10 11 14 15 18 21 24 27 29 32 35 38 41 44 46 50 53 56 58 61 63 65 67 70 72 73 72 68 62
4 3 2 1 1 1 2 2 2 3 4 5 6 8 9 11 14 17 20 22 25 27 30 33 36 39 42 45 48 51 54 57 60 62 64 67 69 70 71 68 62 56 50
4 4 3 2 1 1 1 1 2 3 4 5 7 9 11 13 15 18 20 23 26 29 31 34 37 40 43 46 49 52 55 57 60 62 64 66 67 67 63 56 50 45 41
5 5 4 4 3 4 4 4 5 5 6 7 9 11 13 16 18 20 23 25 28 30 33 36 39 42 44 47 50 53 56 58 60 62 62 63 62 57 50 45 41 38 37
Wind_Direction
244 244 244 244 245 247 249 251 253 255 256 258 260 261 261 261 261 263 264 266 268 269 270 271 272 274 276 278 281 283 285 287 289 289 290 289 289 289 289 289 288 287 286
243 245 245 246 247 249 251 252 254 255 257 258 259 260 260 261 262 264 265 266 267 267 268 269 271 272 275 277 280 282 284 286 288 289 290 290 288 289 289 289 289 289 289
243 244 246 247 249 250 252 254 255 256 257 258 259 260 261 263 263 264 265 264 264 265 266 268 269 272 274 276 279 281 284 286 287 289 290 290 289 289 290 291 290 290 290
245 246 248 250 251 253 254 255 257 258 259 260 260 261 261 263 263 262 261 261 262 263 265 267 269 271 272 275 277 280 283 285 287 288 289 290 290 289 290 290 290 291 291
248 250 252 254 256 257 258 259 260 260 261 261 262 261 261 261 261 261 261 261 261 262 263 265 267 269 271 273 276 279 283 285 287 289 289 290 291 291 291 291 292 292 292
252 255 257 259 260 261 262 262 262 263 263 262 262 262 261 260 259 259 259 259 260 260 261 263 265 267 270 272 275 278 281 284 286 288 289 290 291 291 292 292 293 293 293
256 258 260 262 264 264 265 264 264 263 263 262 261 261 260 259 258 257 256 256 257 259 260 261 264 266 269 272 274 277 280 283 285 287 289 291 292 292 293 292 293 293 292
261 263 265 266 266 266 266 265 264 263 262 261 260 259 258 257 255 254 254 254 254 256 257 259 262 265 268 271 273 276 279 282 285 288 290 291 292 293 294 293 293 293 293
267 269 270 270 269 268 267 266 265 263 261 259 258 256 256 255 254 253 252 252 252 253 255 257 260 263 266 270 273 276 279 282 286 288 290 292 293 293 293 294 294 294 294
273 274 273 272 272 271 270 268 266 264 261 258 255 254 253 252 251 251 250 249 249 250 253 254 258 261 265 269 272 275 278 283 285 288 290 291 292 293 294 295 295 295 295
276 276 276 276 276 276 274 272 269 265 261 258 254 251 250 249 248 248 247 247 246 248 250 253 257 260 264 268 272 275 279 282 286 288 290 291 292 293 294 295 296 296 296
281 282 282 282 282 280 278 276 272 266 261 255 251 247 246 245 244 244 244 244 245 246 248 252 256 260 264 268 272 276 280 283 286 288 289 291 292 294 295 295 296 297 297
288 289 289 289 288 286 282 279 274 266 258 250 244 241 240 239 240 240 241 242 243 245 247 251 254 259 264 269 273 277 281 284 286 288 289 291 292 293 295 296 297 298 299
294 295 296 295 294 291 288 283 275 265 255 246 239 234 233 233 235 236 237 239 240 242 245 249 254 259 264 270 274 278 281 283 285 286 289 291 293 294 296 297 298 299 300
299 301 303 303 301 297 293 287 274 260 247 237 231 228 227 227 229 230 233 235 238 241 244 249 254 260 265 270 275 279 281 284 286 287 290 292 294 296 298 299 300 300 301
306 308 310 311 309 302 295 287 269 251 235 224 221 220 220 220 222 224 227 231 235 239 243 249 256 262 268 273 277 279 282 285 287 289 292 294 296 298 299 301 301 302 302
313 317 320 321 319 312 300 280 257 232 217 211 210 210 210 211 214 216 220 226 231 237 242 249 257 263 269 274 276 280 283 286 289 292 294 296 299 300 301 302 303 303 304
319 324 329 329 328 324 309 272 229 206 197 194 194 196 196 200 204 207 214 222 230 237 246 255 261 266 272 276 279 283 287 290 292 295 297 299 301 302 303 303 304 304 304
324 330 336 340 344 348 3 140 150 166 174 177 180 179 183 189 195 204 217 226 234 244 253 259 266 272 276 280 284 288 291 293 296 298 300 302 303 304 304 304 305 306 306
323 332 341 354 9 31 84 121 134 148 158 164 169 173 179 189 200 209 221 233 245 254 262 267 272 277 282 286 289 292 295 298 300 302 304 305 305 305 305 306 306 307 307
320 328 341 6 31 66 102 121 130 138 149 157 162 171 181 190 205 219 232 246 256 263 269 274 279 284 287 290 294 297 299 301 303 304 305 306 306 306 306 307 308 309 309
323 335 350 8 45 78 118 130 134 140 149 160 167 181 194 209 225 237 247 257 265 272 278 282 286 290 293 296 299 301 303 305 306 306 307 307 308 308 308 309 310 310 311
310 337 1 23 61 89 108 135 154 164 170 181 195 208 221 235 245 253 261 270 276 281 286 290 293 296 299 301 303 305 306 307 308 308 309 309 309 310 311 311 312 312 313
296 300 328 359 40 81 131 130 143 178 207 222 230 236 248 259 267 272 278 282 286 290 294 296 299 302 303 305 306 308 309 310 310 310 310 311 311 312 313 314 314 315 316
284 280 277 273 260 258 263 243 231 245 249 254 262 268 273 279 284 287 290 292 295 298 300 303 304 306 307 308 310 311 311 311 311 312 312 313 314 315 316 317 318 320 321
271 270 269 267 270 274 273 274 277 280 283 286 287 289 291 294 296 298 299 301 302 304 305 306 308 309 309 311 312 313 313 313 314 315 315 316 317 319 320 321 323 324 325
Height
5754 5756 5758 5760 5762 5764 5766 5767 5769 5770 5771 5772 5773 5774 5775 5775 5776 5776 5777 5777 5778 5778 5778 5778 5778 5777 5777 5776 5775 5773 5772 5770 5768 5767 5764 5762 5760 5758 5756 5753 5751 5749 5747
5746 5749 5750 5752 5754 5756 5757 5759 5760 5762 5763 5764 5764 5765 5765 5766 5767 5768 5769 5770 5770 5770 5770 5770 5770 5769 5769 5768 5767 5766 5764 5763 5761 5759 5757 5755 5753 5750 5747 5745 5742 5739 5737
5739 5741 5742 5744 5746 5747 5749 5750 5751 5752 5754 5754 5755 5755 5755 5756 5758 5760 5761 5761 5761 5761 5761 5762 5762 5761 5761 5760 5759 5758 5757 5755 5753 5751 5749 5747 5745 5742 5739 5736 5733 5730 5727
5731 5732 5734 5735 5737 5738 5739 5740 5741 5742 5743 5744 5745 5746 5746 5747 5749 5750 5751 5751 5751 5752 5752 5753 5753 5753 5753 5752 5751 5750 5748 5747 5745 5743 5741 5738 5735 5733 5731 5728 5724 5720 5717
5722 5724 5725 5726 5727 5728 5729 5730 5731 5731 5732 5733 5734 5735 5736 5738 5739 5739 5740 5741 5742 5742 5743 5743 5744 5744 5744 5743 5743 5741 5740 5738 5736 5734 5732 5729 5726 5723 5720 5718 5714 5710 5706
5713 5715 5716 5716 5717 5717 5718 5718 5718 5719 5719 5720 5721 5722 5724 5725 5727 5728 5729 5730 5731 5732 5733 5734 5734 5735 5735 5734 5733 5732 5731 5729 5727 5725 5723 5720 5717 5714 5710 5708 5704 5700 5695
5704 5705 5706 5706 5706 5705 5705 5704 5705 5705 5705 5706 5707 5708 5710 5712 5714 5715 5717 5719 5720 5722 5723 5724 5725 5725 5725 5725 5724 5723 5722 5720 5718 5716 5713 5710 5707 5704 5700 5697 5693 5690 5686
5694 5695 5694 5694 5693 5692 5691 5690 5689 5690 5690 5690 5692 5694 5696 5698 5700 5702 5704 5707 5709 5711 5712 5714 5714 5715 5715 5715 5715 5714 5712 5710 5708 5706 5703 5700 5696 5693 5689 5685 5681 5677 5674
5684 5683 5682 5680 5678 5677 5675 5674 5674 5674 5674 5675 5676 5678 5681 5683 5686 5688 5691 5694 5697 5700 5702 5703 5704 5705 5706 5705 5705 5704 5703 5701 5698 5696 5693 5689 5685 5681 5677 5672 5667 5663 5659
5672 5670 5669 5667 5664 5662 5660 5658 5657 5657 5657 5658 5660 5663 5666 5669 5672 5675 5678 5682 5685 5688 5690 5693 5694 5695 5696 5696 5695 5694 5693 5691 5688 5685 5682 5678 5674 5669 5664 5659 5654 5648 5643
5661 5659 5656 5653 5650 5647 5643 5641 5639 5639 5639 5641 5643 5647 5651 5654 5658 5662 5665 5669 5673 5676 5680 5682 5684 5686 5686 5686 5686 5685 5683 5681 5678 5675 5671 5667 5662 5657 5651 5646 5640 5634 5627
5649 5647 5643 5640 5635 5631 5627 5623 5621 5620 5620 5622 5626 5631 5635 5641 5645 5649 5653 5658 5662 5666 5670 5673 5675 5676 5677 5677 5677 5675 5673 5671 5668 5664 5660 5655 5650 5644 5639 5632 5626 5619 5612
5639 5635 5631 5626 5620 5615 5610 5605 5602 5601 5602 5604 5609 5615 5621 5627 5633 5638 5643 5647 5652 5656 5660 5664 5666 5668 5668 5668 5667 5666 5664 5661 5657 5653 5648 5643 5637 5631 5625 5618 5611 5604 5596
5629 5625 5619 5613 5606 5600 5594 5589 5585 5584 5585 5589 5594 5600 5608 5615 5622 5628 5634 5639 5643 5648 5652 5655 5658 5659 5660 5659 5658 5656 5654 5650 5646 5641 5636 5630 5624 5618 5611 5604 5596 5589 5580
5621 5615 5609 5602 5595 5588 5582 5576 5573 5572 5574 5577 5583 5590 5598 5606 5613 5620 5626 5631 5636 5640 5644 5648 5650 5651 5651 5650 5649 5646 5643 5639 5634 5629 5623 5617 5611 5604 5597 5589 5581 5572 5563
5613 5607 5601 5593 5586 5579 5574 5569 5566 5566 5567 5572 5577 5584 5592 5599 5607 5614 5620 5625 5630 5634 5638 5640 5642 5642 5642 5641 5639 5636 5633 5628 5623 5617 5610 5604 5597 5589 5581 5573 5564 5554 5544
5607 5601 5595 5588 5581 5574 5569 5565 5564 5564 5566 5570 5575 5582 5589 5596 5603 5609 5615 5620 5625 5629 5631 5633 5634 5635 5634 5632 5630 5626 5621 5616 5610 5604 5598 5591 5583 5575 5566 5557 5548 5537 5525
5603 5598 5592 5586 5579 5573 5569 5566 5565 5565 5568 5571 5576 5582 5588 5594 5600 5606 5612 5616 5620 5624 5625 5627 5627 5627 5625 5623 5619 5615 5610 5604 5598 5591 5585 5577 5568 5559 5551 5542 5532 5520 5508
5600 5596 5591 5585 5580 5575 5571 5569 5568 5569 5571 5574 5578 5583 5588 5594 5599 5604 5609 5613 5616 5618 5619 5620 5619 5618 5616 5613 5609 5604 5599 5592 5585 5578 5570 5562 5554 5544 5535 5526 5516 5504 5490
5599 5595 5591 5587 5582 5578 5575 5574 5573 5574 5576 5578 5581 5585 5589 5594 5598 5603 5607 5610 5612 5613 5613 5613 5612 5610 5607 5603 5599 5594 5588 5581 5573 5565 5556 5547 5538 5528 5517 5508 5497 5486 5473
5597 5594 5591 5588 5585 5582 5580 5579 5579 5579 5581 5583 5585 5588 5592 5595 5599 5602 5604 5606 5607 5607 5607 5606 5604 5601 5597 5593 5588 5582 5575 5568 5560 5552 5542 5533 5523 5512 5501 5489 5478 5466 5454
5596 5594 5592 5590 5587 5586 5584 5583 5583 5584 5585 5587 5589 5591 5594 5596 5598 5600 5601 5602 5602 5601 5600 5598 5595 5592 5587 5582 5576 5570 5563 5555 5547 5538 5529 5518 5507 5496 5484 5472 5460 5447 5435
5596 5594 5592 5591 5589 5588 5587 5587 5587 5588 5588 5590 5591 5593 5594 5595 5596 5597 5598 5597 5596 5595 5593 5590 5587 5582 5577 5571 5565 5558 5550 5542 5533 5524 5513 5502 5491 5480 5467 5455 5443 5431 5419
5595 5594 5593 5592 5591 5590 5589 5589 5589 5590 5590 5591 5592 5592 5593 5594 5594 5594 5593 5592 5590 5588 5585 5582 5577 5572 5567 5560 5553 5546 5537 5528 5519 5509 5498 5486 5475 5463 5451 5439 5427 5416 5407
5594 5593 5592 5592 5591 5591 5590 5590 5590 5590 5590 5591 5591 5591 5591 5591 5590 5589 5588 5586 5584 5580 5577 5573 5568 5562 5556 5549 5542 5534 5525 5515 5505 5494 5483 5471 5459 5447 5435 5424 5415 5406 5398
5593 5592 5592 5592 5591 5591 5590 5590 5590 5590 5590 5590 5589 5589 5588 5587 5586 5584 5582 5579 5576 5572 5568 5564 5558 5552 5546 5539 5531 5522 5512 5502 5491 5480 5469 5457 5446 5435 5424 5415 5407 5399 5391